Starlink 30706

operational
NORAD ID: 57947 Int'l Des: 2023-148 Owner: SPXS Country: US Constellation: starlink
LEOCIRCULAR

About Starlink 30706

Description loading...

Live Position

Loading 3D Globe...

Upcoming Passes

Altitude History

Altitude vs Time

uPlot chart will show altitude changes over time

Two-Line Element Set

1 57947U 23148N 25351.15484801 .00000123 00000-0 16276-4 0 9999
2 57947 53.1611 47.8015 0001353 88.9016 271.2140 15.30200831125783
Epoch: Dec 17, 2025 • Age: 10 hours

Current Status

Altitude 492.6 km
Velocity 7.62 km/s
Sub-Earth Point -48.09°S, 17.59°W
Launch Date Sep 25, 2023
Age 2.2 years
Type internet

Technical Details

Classification Payload
Mass 730.00 kg
Dry Mass 700.00 kg
Total Mass 730.00 kg
Length 0.30 m
Diameter 4.10 m
Span 29.00 m
Shape Box + pan
Manufacturer SPXS
Bus Type Starlink V2M
Phase Status In Orbit
Owner/State SPXS/US

Large Constellations

Loading constellations...